STARLINK-2740, 48690

Orbit data source: Space-Track

STARLINK-2740, 48690 is a payload satellite owned by SpaceX/Seattle (US) in LEO that was launched on Wed, 26 May 2021 UTC via an FALCON 9 launch vehicle from the Air Force Eastern Test Range (AFETR). Payload-class satellites include a variety of spacecraft equipped with specific instruments for various scientific and technological missions. These include communications satellites like Starlink; space stations such as the ISS; scientific satellites like the Hubble; Earth observation satellites from companies like Planet Labs, Umbra, and HawkEye 360; GPS; miniature CubeSats for education and research; and military/defense satellites.

Loading next visibility...
Identifier
48690, 2021-044BE
Orbit
LEO
Country
Flag of USUS
Related business
Manufacturer
SpaceX/Seattle
Mission
Operational Commercial Communications
Bus & Motor
STARLINK, Unknown motor
Mass
260 kg wet, ~248 kg dry
Launch date (UTC)
2021-05-26 (5 years ago)
Launch vehicle
FALCON 9
Launch site
Air Force Eastern Test Range (AFETR)
Object type
Payload
Rocket body
Debris
Shape & HBR
Box + 1 Pan, 10.1 m
Radar Cross Section
13.562 m², Large (>1 m²)

Expand to show TLE details & history
Last TLE update: 22 hours ago

TLE from 22 hours ago
0 STARLINK-2740
1 48690U 21044BE  25348.70766087 -.00000238  00000-0  29460-5 0  9991
2 48690  53.0552 103.1182 0001323  87.6481 272.4660 15.06385759251451
Epoch: 2025-12-14T16:59Z
TLE epoch observation values (Epoch: 2025-12-14T16:59:01.899Z)
Latitude
0.00004°
Longitude
124.74361°
Altitude
548.095 km
Speed
7.589 km/s
True Right ascension
06h 52m 28s
True Declination
0° 00' 00"
Sunlit
Object was in full shadow at epoch
Visualization orbit readout
Latitude
Unknown
Longitude
Unknown
Altitude
Unknown
Speed
Unknown
Apparent Right ascension
Unknown
Apparent Declination
Unknown
Sunlit
N/A
Visualization observer readout
Local Sidereal Time
13:18:48
Azimuth
Unknown
Elevation
Unknown
Doppler factor
Unknown
Orbital elements
Apogee altitude
548.442 km
Perigee altitude
546.61 km
Semi-major axis
6,925.663 km
Eccentricity
0.00013
Inclination
53.0552°
RAAN
103.1182°
Arg. of periapsis
87.6481°
True anomaly
272.45085°
Mean anomaly
272.466°
Eccentric anomaly
272.45843°
Mean motion
3.76575 °/min
Orbital period
95.6 mins
BSTAR
0.000002946
Loading maneuver chart data...
Computing Atmospheric mass density...
Loading historical data...
Loading historical data...
Loading historical data...
Loading historical data...
Loading historical data...
Loading historical data...
Loading historical data...

Documentation

Showing up to 5 results
|